| time (UTC) | temp F | wind direction | speed knots | gust knots | rain 1hr in | rain 24hr in | rain mn in | humidity % | barometer mb |
| 20260504180054 | 79 | 231 | 21.7 | 28.7 | 0.00 | 0.00 | 0.00 | 43 | 1012.4 |
| 20260504174551 | 79 | 224 | 20.9 | 28.7 | 0.00 | 0.00 | 0.00 | 42 | 1012.6 |
| 20260504173049 | 79 | 213 | 21.7 | 34.8 | 0.00 | 0.00 | 0.00 | 41 | 1012.8 |
| 20260504171547 | 79 | 228 | 20.9 | 29.5 | 0.00 | 0.00 | 0.00 | 42 | 1013.1 |
| 20260504081537 | 63 | 190 | 7.8 | 10.4 | 0.00 | 0.00 | 0.00 | 69 | 1013.8 |
| 20260504050012 | 62 | 203 | 5.2 | 8.7 | 0.00 | 0.00 | 0.00 | 71 | 1015.8 |
| 20260504044508 | 63 | 207 | 6.1 | 10.4 | 0.00 | 0.00 | 0.00 | 69 | 1016.0 |
| 20260504043008 | 63 | 208 | 7.0 | 10.4 | 0.00 | 0.00 | 0.00 | 69 | 1016.1 |
| 20260504041510 | 63 | 190 | 7.8 | 12.2 | 0.00 | 0.00 | 0.00 | 68 | 1016.1 |
| 20260504040008 | 64 | 190 | 7.8 | 11.3 | 0.00 | 0.00 | 0.00 | 67 | 1016.1 |
| 20260504034507 | 64 | 187 | 7.0 | 12.2 | 0.00 | 0.00 | 0.00 | 66 | 1016.2 |
| 20260504033008 | 65 | 188 | 7.8 | 13.0 | 0.00 | 0.00 | 0.00 | 64 | 1016.3 |
| 20260504031605 | 66 | 201 | 8.7 | 12.2 | 0.00 | 0.00 | 0.00 | 63 | 1016.3 |
| 20260504030005 | 66 | 190 | 7.8 | 11.3 | 0.00 | 0.00 | 0.00 | 63 | 1016.3 |
| 20260504024504 | 66 | 195 | 7.0 | 13.0 | 0.00 | 0.00 | 0.00 | 62 | 1016.2 |
| 20260504023004 | 66 | 196 | 7.8 | 10.4 | 0.00 | 0.00 | 0.00 | 61 | 1016.4 |
| 20260504021503 | 66 | 198 | 7.0 | 10.4 | 0.00 | 0.00 | 0.00 | 60 | 1016.3 |
| 20260504020001 | 67 | 205 | 7.0 | 10.4 | 0.00 | 0.00 | 0.00 | 59 | 1016.2 |
| 20260504014606 | 67 | 193 | 7.8 | 12.2 | 0.00 | 0.00 | 0.00 | 58 | 1016.0 |
| 20260504013100 | 67 | 188 | 7.0 | 9.6 | 0.00 | 0.00 | 0.00 | 56 | 1016.2 |
| 20260504011558 | 68 | 196 | 6.1 | 7.8 | 0.00 | 0.00 | 0.00 | 55 | 1016.0 |
| 20260504010105 | 68 | 198 | 6.1 | 9.6 | 0.00 | 0.00 | 0.00 | 53 | 1015.8 |
| 20260504004556 | 69 | 202 | 8.7 | 15.6 | 0.00 | 0.00 | 0.00 | 51 | 1016.0 |
| 20260504003057 | 70 | 212 | 10.4 | 20.9 | 0.00 | 0.00 | 0.00 | 50 | 1016.1 |
| 20260504001554 | 71 | 215 | 13.9 | 20.9 | 0.00 | 0.00 | 0.00 | 48 | 1016.2 |
| 20260504000132 | 72 | 212 | 11.3 | 21.7 | 0.00 | 0.00 | 0.00 | 47 | 1016.3 |
| 20260503234557 | 72 | 213 | 13.9 | 21.7 | 0.00 | 0.00 | 0.00 | 46 | 1016.5 |
| 20260503233048 | 72 | 222 | 13.9 | 20.9 | 0.00 | 0.00 | 0.00 | 45 | 1016.6 |
| 20260503231547 | 72 | 211 | 13.0 | 20.9 | 0.00 | 0.00 | 0.00 | 44 | 1016.7 |
| 20260503230049 | 72 | 229 | 13.9 | 21.7 | 0.00 | 0.00 | 0.00 | 43 | 1016.9 |
| 20260503224545 | 73 | 227 | 16.5 | 20.9 | 0.00 | 0.00 | 0.00 | 41 | 1017.0 |
| 20260503223044 | 73 | 200 | 13.0 | 21.7 | 0.00 | 0.00 | 0.00 | 41 | 1017.2 |
| 20260503221550 | 74 | 219 | 12.2 | 21.7 | 0.00 | 0.00 | 0.00 | 38 | 1017.3 |
| 20260503220042 | 73 | 223 | 13.0 | 21.7 | 0.00 | 0.00 | 0.00 | 39 | 1017.6 |
| 20260503214543 | 73 | 220 | 13.9 | 20.0 | 0.00 | 0.00 | 0.00 | 38 | 1017.6 |
| 20260503213037 | 73 | 218 | 13.9 | 20.0 | 0.00 | 0.00 | 0.00 | 36 | 1017.8 |
| 20260503211534 | 73 | 223 | 9.6 | 20.0 | 0.00 | 0.00 | 0.00 | 35 | 1018.0 |
| 20260503210032 | 73 | 211 | 9.6 | 17.4 | 0.00 | 0.00 | 0.00 | 36 | 1018.3 |
| 20260503204528 | 72 | 210 | 15.6 | 20.9 | 0.00 | 0.00 | 0.00 | 35 | 1018.8 |
| 20260503203039 | 72 | 223 | 12.2 | 22.6 | 0.00 | 0.00 | 0.00 | 36 | 1019.0 |
| 20260503201532 | 71 | 213 | 14.8 | 21.7 | 0.00 | 0.00 | 0.00 | 38 | 1019.5 |
| 20260503200022 | 71 | 209 | 11.3 | 21.7 | 0.00 | 0.00 | 0.00 | 40 | 1019.6 |
| 20260503194518 | 70 | 226 | 13.9 | 21.7 | 0.00 | 0.00 | 0.00 | 43 | 1020.1 |
| 20260503193019 | 70 | 222 | 11.3 | 19.1 | 0.00 | 0.00 | 0.00 | 44 | 1020.3 |
| 20260503191514 | 70 | 242 | 13.0 | 21.7 | 0.00 | 0.00 | 0.00 | 44 | 1020.9 |
| 20260503190011 | 69 | 190 | 11.3 | 19.1 | 0.00 | 0.00 | 0.00 | 40 | 1021.2 |
| 20260503184508 | 69 | 202 | 10.4 | 22.6 | 0.00 | 0.00 | 0.00 | 44 | 1021.5 |
| 20260503183005 | 68 | 228 | 13.9 | 22.6 | 0.00 | 0.00 | 0.00 | 44 | 1021.7 |
| 20260503181505 | 68 | 253 | 11.3 | 20.9 | 0.00 | 0.00 | 0.00 | 44 | 1021.9 |